"Pseudo-MPEC" for P10SthY

Created 2019 Oct 15 20:07:13 UT using Find_Orb

Click here for an explanation of pseudo-MPECs

 
 Astrometry: 
     P10SthY  C2019 10 05ZWQ@%U0!@UJOGLcQIegp)s*_sZOl2,9l=DfBPwt+HI-N3^QxKH'xF51
     P10SthY  C2019 10 05,ArfJx02DMVdI0;G+IT-wgk)fqQGo]BA#m`VWr+(e.AstrometryF51
     P10SthY  C2019 10 059ZUDZXxB0redacted;@gclick9`^D-.[*O^winT;o9D4H]nW[(jYF51
     P10SthY KC2019 10 06.28313 04 07 42.68 +05 02 50.0    ~A697 22.3 RoNEOCP291
     P10SthY KC2019 10 06.29211 04 07 43.24 +05 02 48.3    ~A697 22.5 RoNEOCP291
     P10SthY KC2019 10 06.30109 04 07 43.82 +05 02 46.6    ~A697 22.4 RoNEOCP291
     P10SthY |C2019 10 06JS8m9P7!^L+hd\WY6MN*q,.dcilhere-qaV/Tforo_EpxqUf\7wo807
     P10SthY |C2019 10 06N$C2u9]#[Loi)@P_O_.i*YAV4alL8aT=^f8w^PT?V#b_DmxMR-6@807
     P10SthY |C2019 10 067lTx8Z7y4T7TFexplanationhlPBf-FNljuk=MR4dr%0L$#-ou#n807
     P10SthY ^C2019 10 08.52127 04 10 02.220+04 56 15.67   ~AA3b 22.3 GVNEOCP568
     P10SthY ^C2019 10 08.53253 04 10 02.765+04 56 13.69   ~AA3b 22.1 GVNEOCP568

Station data:
(291) LPL/Spacewatch II  (N31.961669 W111.599905)  US/Arizona.  Observers J.
   V. Scotti, R. S. McMillan. 1.8-m f/2.7 reflector + CCD.
(568) Mauna Kea  (N19.826116 W155.472200)  US/Hawaii.
(807) Cerro Tololo Observatory, La Serena  (S30.169136 W70.805900)  Chile.
(F51) Pan-STARRS 1, Haleakala  (N20.707235 W156.255910)  US/Hawaii.
   Observers N. Primak, A. Schultz, S. Watters, J. Thiel, T. Goggia. Measurer
   PS1 Science Consortium. 1.8-m Ritchey-Chrétien + CCD.

Orbital elements:  P10SthY
   Perihelion 2019 Sep 10.076600 +/- 0.355 TT =  1:50:18 (JD 2458736.576600)
Epoch 2019 Oct  8.0 TT = JDT 2458764.5   Earth MOID: 0.2666   Ma: 0.0284
M   8.00724211 +/- 0.24             (J2000 ecliptic)          AutoNEOCP
n   0.28675741 +/- 0.0122           Peri.  232.17079 +/- 0.9
a   2.27750641 +/- 0.0645           Node   131.45900 +/- 0.7
e   0.4469512 +/- 0.015             Incl.    4.90955 +/- 0.055
P   3.44                   H 22.7   G  0.15   U  9.8  
q 1.25957196 +/- 0.00259    Q 3.29544086 +/- 0.13
From 11 observations 2019 Oct. 5-8; mean residual 0".15
Residuals in arcseconds: 
191005 F51  .18-  .10-    191006 291  .21-  .08+    191006 807  .17-  .03-    
191005 F51  .17+  .11-    191006 291  .09+  .07-    191008 568  .07+  .03-    
191005 F51  .04-  .16-    191006 807  .25+  .21+    191008 568  .09-  .07-    
191006 291  .16-  .23+    191006 807  .27+  .07+    

Ephemerides (geocentric):
Date (UTC) HH   RA              Dec         delta   r     elong  mag " sig PA
---- -- -- --  -------------   -----------  ------ ------ -----  --- ---- ---
2019 10 15 20  04 15 17.078   +04 37 14.74  .39343 1.3110 136.6 22.6 1.22  13
2019 10 15 21  04 15 18.252   +04 37 09.19  .39344 1.3111 136.6 22.6 1.24  14
2019 10 15 22  04 15 19.419   +04 37 03.66  .39346 1.3112 136.6 22.6 1.25  14
2019 10 15 23  04 15 20.580   +04 36 58.15  .39347 1.3113 136.7 22.6 1.26  15
2019 10 16 00  04 15 21.733   +04 36 52.64  .39348 1.3115 136.7 22.6 1.28  16
2019 10 16 01  04 15 22.880   +04 36 47.15  .39349 1.3116 136.7 22.6 1.29  16
2019 10 16 02  04 15 24.019   +04 36 41.68  .39350 1.3117 136.8 22.6 1.31  17
2019 10 16 03  04 15 25.152   +04 36 36.22  .39352 1.3118 136.8 22.6 1.32  17
2019 10 16 04  04 15 26.278   +04 36 30.77  .39353 1.3119 136.8 22.6 1.34  18
2019 10 16 05  04 15 27.396   +04 36 25.33  .39354 1.3120 136.9 22.6 1.35  19
2019 10 16 06  04 15 28.508   +04 36 19.91  .39356 1.3122 136.9 22.6 1.37  19
2019 10 16 07  04 15 29.613   +04 36 14.51  .39357 1.3123 136.9 22.6 1.38  20
2019 10 16 08  04 15 30.711   +04 36 09.12  .39358 1.3124 137.0 22.6 1.40  21
2019 10 16 09  04 15 31.802   +04 36 03.74  .39360 1.3125 137.0 22.6 1.41  21
2019 10 16 10  04 15 32.886   +04 35 58.38  .39361 1.3126 137.0 22.6 1.43  22
2019 10 16 11  04 15 33.963   +04 35 53.03  .39362 1.3127 137.0 22.6 1.45  22
2019 10 16 12  04 15 35.033   +04 35 47.69  .39364 1.3129 137.1 22.6 1.46  23
2019 10 16 13  04 15 36.096   +04 35 42.37  .39365 1.3130 137.1 22.6 1.48  24
2019 10 16 14  04 15 37.153   +04 35 37.07  .39367 1.3131 137.1 22.6 1.50  24
2019 10 16 15  04 15 38.202   +04 35 31.78  .39368 1.3132 137.2 22.6 1.52  25
2019 10 16 16  04 15 39.244   +04 35 26.50  .39369 1.3133 137.2 22.6 1.54  25
2019 10 16 17  04 15 40.280   +04 35 21.24  .39371 1.3135 137.2 22.6 1.55  26
2019 10 16 18  04 15 41.309   +04 35 15.99  .39372 1.3136 137.3 22.6 1.57  26
2019 10 16 19  04 15 42.330   +04 35 10.76  .39374 1.3137 137.3 22.6 1.59  27
2019 10 16 20  04 15 43.345   +04 35 05.54  .39375 1.3138 137.3 22.6 1.61  28
2019 10 16 21  04 15 44.353   +04 35 00.34  .39377 1.3139 137.4 22.6 1.63  28
2019 10 16 22  04 15 45.354   +04 34 55.15  .39378 1.3140 137.4 22.6 1.65  29
2019 10 16 23  04 15 46.348   +04 34 49.97  .39380 1.3142 137.4 22.6 1.67  29
2019 10 17 00  04 15 47.335   +04 34 44.82  .39381 1.3143 137.5 22.6 1.69  30
2019 10 17 01  04 15 48.316   +04 34 39.67  .39383 1.3144 137.5 22.6 1.71  30
2019 10 17 02  04 15 49.289   +04 34 34.54  .39384 1.3145 137.5 22.6 1.74  31
2019 10 17 03  04 15 50.256   +04 34 29.43  .39386 1.3146 137.6 22.6 1.76  32
2019 10 17 04  04 15 51.215   +04 34 24.33  .39387 1.3148 137.6 22.6 1.78  32
2019 10 17 05  04 15 52.168   +04 34 19.24  .39389 1.3149 137.6 22.6 1.80  33
2019 10 17 06  04 15 53.114   +04 34 14.17  .39391 1.3150 137.7 22.6 1.82  33
2019 10 17 07  04 15 54.053   +04 34 09.12  .39392 1.3151 137.7 22.6 1.85  34
2019 10 17 08  04 15 54.985   +04 34 04.08  .39394 1.3152 137.7 22.6 1.87  34
2019 10 17 09  04 15 55.910   +04 33 59.06  .39396 1.3154 137.8 22.6 1.90  35
2019 10 17 10  04 15 56.829   +04 33 54.05  .39397 1.3155 137.8 22.6 1.92  35
2019 10 17 11  04 15 57.740   +04 33 49.05  .39399 1.3156 137.8 22.6 1.94  36
2019 10 17 12  04 15 58.645   +04 33 44.08  .39401 1.3157 137.9 22.6 1.97  36
2019 10 17 13  04 15 59.542   +04 33 39.11  .39402 1.3158 137.9 22.6 1.99  37
2019 10 17 14  04 16 00.433   +04 33 34.17  .39404 1.3160 137.9 22.6 2.02  37
2019 10 17 15  04 16 01.317   +04 33 29.23  .39406 1.3161 138.0 22.6 2.05  38
2019 10 17 16  04 16 02.194   +04 33 24.32  .39407 1.3162 138.0 22.6 2.07  38
2019 10 17 17  04 16 03.064   +04 33 19.42  .39409 1.3163 138.0 22.6 2.10  39
2019 10 17 18  04 16 03.928   +04 33 14.53  .39411 1.3164 138.1 22.6 2.13  39
2019 10 17 19  04 16 04.784   +04 33 09.66  .39413 1.3166 138.1 22.6 2.15  40